TimeCDT,TemperatureF,Dew PointF,Humidity,Sea Level PressureIn,VisibilityMPH,Wind Direction,Wind SpeedMPH,Gust SpeedMPH,PrecipitationIn,Events,Conditions,WindDirDegrees,DateUTC
12:15 AM,72.9,66.6,81,29.94,10.0,SE,5.8,-,N/A,,Clear,130,2012-10-24 05:15:00
12:35 AM,72.1,66.4,82,29.94,10.0,SE,4.6,-,N/A,,Clear,130,2012-10-24 05:35:00
12:55 AM,71.6,66.2,83,29.93,10.0,SE,3.5,-,N/A,,Clear,140,2012-10-24 05:55:00
1:15 AM,70.7,65.7,84,29.94,10.0,Calm,Calm,-,N/A,,Clear,0,2012-10-24 06:15:00
1:35 AM,70.0,65.3,85,29.94,10.0,Calm,Calm,-,N/A,,Clear,0,2012-10-24 06:35:00
1:55 AM,69.8,64.9,84,29.94,10.0,Calm,Calm,-,N/A,,Clear,0,2012-10-24 06:55:00
2:15 AM,69.1,64.8,86,29.94,10.0,Calm,Calm,-,N/A,,Scattered Clouds,0,2012-10-24 07:15:00
2:35 AM,67.6,63.9,88,29.93,10.0,Calm,Calm,-,N/A,,Clear,0,2012-10-24 07:35:00
2:55 AM,67.1,63.5,88,29.93,10.0,Calm,Calm,-,N/A,,Scattered Clouds,0,2012-10-24 07:55:00
3:15 AM,66.2,63.1,90,29.92,10.0,Calm,Calm,-,N/A,,Scattered Clouds,0,2012-10-24 08:15:00
3:35 AM,65.3,62.6,91,29.92,10.0,East,3.5,-,N/A,,Mostly Cloudy,80,2012-10-24 08:35:00
3:55 AM,65.3,62.6,91,29.91,10.0,Calm,Calm,-,N/A,,Mostly Cloudy,0,2012-10-24 08:55:00
4:15 AM,64.8,62.4,92,29.92,10.0,Calm,Calm,-,N/A,,Mostly Cloudy,0,2012-10-24 09:15:00
4:35 AM,64.4,61.9,92,29.91,10.0,Calm,Calm,-,N/A,,Scattered Clouds,0,2012-10-24 09:35:00
4:55 AM,64.4,62.1,92,29.92,10.0,Calm,Calm,-,N/A,,Clear,0,2012-10-24 09:55:00
5:15 AM,63.0,60.4,91,29.92,10.0,Calm,Calm,-,N/A,,Clear,0,2012-10-24 10:15:00
5:35 AM,62.6,60.3,92,29.92,2.5,East,3.5,-,N/A,,Clear,80,2012-10-24 10:35:00
5:55 AM,62.1,59.9,93,29.92,2.5,East,3.5,-,N/A,,Clear,80,2012-10-24 10:55:00
6:15 AM,62.2,60.3,93,29.92,4.0,East,3.5,-,N/A,,Clear,80,2012-10-24 11:15:00
7:15 AM,61.7,59.9,94,29.93,5.0,Calm,Calm,-,N/A,,Scattered Clouds,0,2012-10-24 12:15:00
7:35 AM,62.4,60.6,94,29.94,10.0,Calm,Calm,-,N/A,,Scattered Clouds,0,2012-10-24 12:35:00
7:55 AM,62.1,60.3,94,29.94,7.0,Calm,Calm,-,N/A,,Clear,0,2012-10-24 12:55:00
8:15 AM,61.9,60.1,94,29.94,7.0,Calm,Calm,-,N/A,,Clear,0,2012-10-24 13:15:00
8:35 AM,63.5,61.7,94,29.95,10.0,Calm,Calm,-,N/A,,Clear,0,2012-10-24 13:35:00
8:55 AM,65.5,63.5,93,29.95,10.0,SE,3.5,-,N/A,,Clear,130,2012-10-24 13:55:00
9:15 AM,69.3,63.5,82,29.96,10.0,ESE,3.5,-,N/A,,Clear,120,2012-10-24 14:15:00
9:35 AM,73.9,63.9,71,29.96,10.0,SSE,6.9,-,N/A,,Clear,150,2012-10-24 14:35:00
10:15 AM,78.8,63.7,60,29.96,10.0,SSE,8.1,-,N/A,,Clear,150,2012-10-24 15:15:00
10:35 AM,79.7,63.5,58,29.96,10.0,SSE,9.2,17.3,N/A,,Clear,150,2012-10-24 15:35:00
11:15 AM,81.5,61.7,51,29.96,10.0,SE,9.2,-,N/A,,Clear,140,2012-10-24 16:15:00
11:35 AM,82.9,61.9,49,29.96,10.0,SSE,5.8,-,N/A,,Clear,150,2012-10-24 16:35:00
11:55 AM,84.2,59.7,43,29.95,10.0,South,12.7,16.1,N/A,,Clear,170,2012-10-24 16:55:00
12:15 PM,84.2,60.3,44,29.94,10.0,South,10.4,17.3,N/A,,Clear,170,2012-10-24 17:15:00
12:35 PM,86.0,57.7,38,29.93,10.0,SSE,6.9,19.6,N/A,,Clear,150,2012-10-24 17:35:00
12:55 PM,86.9,57.7,37,29.92,10.0,South,11.5,-,N/A,,Clear,170,2012-10-24 17:55:00
1:35 PM,87.4,55.8,34,29.90,7.0,SSE,6.9,16.1,N/A,,Clear,150,2012-10-24 18:35:00
1:55 PM,88.0,55.2,33,29.88,10.0,ESE,9.2,-,N/A,,Clear,120,2012-10-24 18:55:00
2:15 PM,89.4,52.5,28,29.87,10.0,SSE,11.5,16.1,N/A,,Clear,150,2012-10-24 19:15:00
2:35 PM,89.8,52.2,28,29.86,10.0,SSE,11.5,16.1,N/A,,Scattered Clouds,160,2012-10-24 19:35:00
2:55 PM,90.0,50.5,26,29.86,10.0,SSE,6.9,17.3,N/A,,Clear,150,2012-10-24 19:55:00
3:15 PM,90.7,51.8,26,29.85,10.0,ESE,9.2,-,N/A,,Clear,120,2012-10-24 20:15:00
3:35 PM,90.7,51.3,26,29.84,10.0,East,6.9,-,N/A,,Clear,80,2012-10-24 20:35:00
3:55 PM,90.5,52.2,27,29.83,7.0,SE,10.4,-,N/A,,Scattered Clouds,130,2012-10-24 20:55:00
4:15 PM,89.6,55.2,31,29.83,10.0,ESE,10.4,18.4,N/A,,Scattered Clouds,110,2012-10-24 21:15:00
4:35 PM,89.6,55.8,32,29.83,10.0,ESE,9.2,17.3,N/A,,Scattered Clouds,120,2012-10-24 21:35:00
4:55 PM,88.2,57.2,35,29.83,10.0,ESE,11.5,20.7,N/A,,Scattered Clouds,120,2012-10-24 21:55:00
5:15 PM,87.4,59.2,38,29.83,10.0,ESE,13.8,19.6,N/A,,Clear,120,2012-10-24 22:15:00
5:35 PM,86.9,59.9,40,29.83,10.0,East,13.8,19.6,N/A,,Clear,100,2012-10-24 22:35:00
5:55 PM,85.8,60.6,43,29.83,10.0,ESE,13.8,19.6,N/A,,Clear,120,2012-10-24 22:55:00
6:15 PM,84.6,61.3,45,29.83,10.0,ESE,12.7,18.4,N/A,,Clear,120,2012-10-24 23:15:00
6:35 PM,83.5,62.6,49,29.84,10.0,ESE,11.5,18.4,N/A,,Clear,110,2012-10-24 23:35:00
6:55 PM,82.0,62.6,52,29.84,10.0,ESE,12.7,19.6,N/A,,Clear,120,2012-10-24 23:55:00
7:15 PM,80.8,62.8,54,29.85,10.0,ESE,13.8,19.6,N/A,,Clear,120,2012-10-25 00:15:00
7:55 PM,79.0,63.5,59,29.87,10.0,ESE,10.4,16.1,N/A,,Clear,120,2012-10-25 00:55:00
8:15 PM,78.3,64.4,62,29.87,10.0,ESE,8.1,-,N/A,,Clear,120,2012-10-25 01:15:00
8:35 PM,77.5,64.9,65,29.87,10.0,ESE,11.5,19.6,N/A,,Scattered Clouds,120,2012-10-25 01:35:00
8:55 PM,77.0,65.3,67,29.87,10.0,ESE,6.9,-,N/A,,Clear,120,2012-10-25 01:55:00
9:15 PM,76.1,65.5,70,29.88,10.0,ESE,6.9,-,N/A,,Clear,120,2012-10-25 02:15:00
9:35 PM,75.6,65.8,72,29.88,10.0,ESE,6.9,-,N/A,,Clear,120,2012-10-25 02:35:00
9:55 PM,75.2,66.2,73,29.88,10.0,SE,6.9,-,N/A,,Clear,130,2012-10-25 02:55:00
10:15 PM,74.7,66.2,75,29.88,10.0,SE,5.8,-,N/A,,Clear,130,2012-10-25 03:15:00
10:35 PM,74.3,66.2,76,29.88,10.0,SE,6.9,-,N/A,,Clear,130,2012-10-25 03:35:00
10:55 PM,73.8,66.2,77,29.88,10.0,SE,5.8,-,N/A,,Clear,130,2012-10-25 03:55:00
11:15 PM,73.6,66.2,78,29.88,10.0,SE,6.9,-,N/A,,Clear,130,2012-10-25 04:15:00
11:35 PM,72.9,66.2,80,29.88,10.0,SE,5.8,-,N/A,,Clear,140,2012-10-25 04:35:00
11:55 PM,72.5,66.2,81,29.88,10.0,SE,5.8,-,N/A,,Clear,140,2012-10-25 04:55:00